[[{"header":{"parameterUnit":"m.s-1","parameterCategory":2,"la1":30.2991,"la2":30.254,"lo1":-89.0895,"lo2":-89.0444,"dy":0.0017,"dx":0.0017,"nx":28,"ny":28,"refTime":"2024-07-24T21:00:00:Z","depth":"0","parameterNumber":2,"parameterNumberName":"U-component_of_CURRENTS"},"data":[0,0,0,0,0,0,0,0,0,0,0,0,0,0,0,0,0,0,0,0,0,0,0,0,0,0,0,0,0,0,0,0,0,0,0,0,0,0,0,0,0,0,0,0,0,0,0,0,0,0,0,0,0,0,0,0,0,0,-0.2444,-0.2444,0,-0.2421,-0.242,-0.242,-0.2314,-0.2312,-0.231,-0.2308,-0.2206,-0.2206,-0.2205,0,0,0,0,0,0,0,0,0,0,0,0,0,-0.2335,-0.2338,-0.2444,-0.2444,-0.2444,-0.2421,-0.242,-0.2419,-0.2314,-0.2312,-0.2309,-0.2307,-0.2207,-0.2206,-0.2205,0,0,0,0,0,0,0,0,0,0,0,0,0,-0.235,-0.2338,-0.2444,-0.2392,-0.2387,-0.2421,-0.242,-0.2419,-0.2315,-0.2312,-0.2308,-0.2306,-0.2207,-0.2206,-0.2205,-0.226,0,0,-0.2201,-0.2201,0,0,0,0,0,0,0,0,-0.235,-0.2354,-0.24,-0.2396,-0.2391,-0.2371,-0.2345,-0.2364,-0.2316,-0.2338,-0.2308,-0.2304,-0.2259,-0.2254,-0.2251,-0.2256,-0.2251,-0.2201,-0.22,-0.22,-0.22,0,0,0,0,0,0,0,-0.2349,-0.2354,-0.243,-0.24,-0.2395,-0.2349,-0.2348,-0.2347,-0.2312,-0.2336,-0.2329,-0.2334,-0.2255,-0.2253,-0.2248,-0.225,-0.2201,-0.22,-0.22,-0.2199,-0.2288,-0.2291,0,0,0,0,0,0,-0.2368,-0.2354,-0.2431,-0.243,-0.2367,-0.2354,-0.2352,-0.2377,-0.2313,-0.2302,-0.2337,-0.233,-0.2256,-0.2249,-0.2244,-0.2288,-0.22,-0.2199,-0.2198,-0.2285,-0.2288,-0.2292,0,0,0,0,0,0,-0.2366,-0.2376,-0.2432,-0.2393,-0.2397,-0.236,-0.2388,-0.2378,-0.2372,-0.2316,-0.2302,-0.234,-0.2253,-0.2245,-0.225,-0.2283,-0.2198,-0.2197,-0.2281,-0.2286,-0.229,-0.2387,0,0,0,0,0,0,-0.2363,-0.2376,-0.2392,-0.2396,-0.2401,-0.2464,-0.2391,-0.238,-0.2382,-0.2372,-0.2315,-0.2302,-0.225,-0.2252,-0.2249,-0.228,-0.2197,-0.2277,-0.2283,-0.2289,-0.238,-0.2394,-0.2406,0,0,0,0,0,-0.236,-0.2405,-0.2394,-0.2403,-0.2428,-0.2466,-0.2465,-0.2423,-0.2386,-0.2401,-0.2359,-0.2303,-0.2285,-0.2254,-0.2249,-0.2281,-0.2274,-0.2281,-0.2288,-0.2374,-0.2391,-0.2406,0,0,0,0,0,0,-0.2356,-0.2399,-0.2386,-0.2438,-0.2455,-0.245,-0.2459,-0.2442,-0.2424,-0.2402,-0.2341,-0.2328,-0.2345,-0.2316,-0.2283,-0.2329,-0.2273,-0.2279,-0.234,-0.2356,-0.2369,-0.2352,-0.2196,0,0,0,0,0,-0.2371,-0.2419,-0.2441,-0.2481,-0.2493,-0.2481,-0.2487,-0.2468,-0.2458,-0.2445,-0.241,-0.2381,-0.2377,-0.2365,-0.2355,-0.2384,-0.2305,-0.2406,-0.2419,-0.243,-0.2418,-0.2339,-0.2341,-0.2314,-0.2314,-0.2314,0,0,-0.238,-0.241,-0.2434,-0.2484,-0.2486,-0.2513,-0.2475,-0.25,-0.2513,-0.2441,-0.2445,-0.2429,-0.2399,-0.242,-0.2426,-0.2393,-0.2401,-0.2439,-0.2448,-0.2429,-0.2346,-0.2347,-0.2349,-0.2319,-0.2318,-0.2317,0,0,-0.2421,-0.2451,-0.2495,-0.252,-0.2546,-0.2546,-0.2561,-0.257,-0.256,-0.2583,-0.2534,-0.2537,-0.2531,-0.2511,-0.2501,-0.2591,-0.2478,-0.2602,-0.2644,-0.2568,-0.2568,-0.2567,-0.247,-0.2459,-0.2602,-0.2602,-0.2602,0,-0.2421,-0.2478,-0.2512,-0.2553,-0.2569,-0.2566,-0.2598,-0.2609,-0.2615,-0.2614,-0.2592,-0.2581,-0.2569,-0.2576,-0.2615,-0.2616,-0.2541,-0.2579,-0.2579,-0.2576,-0.2573,-0.2474,-0.2461,-0.2607,-0.2607,-0.2606,-0.2606,0,-0.2487,-0.2523,-0.2554,-0.2603,-0.2635,-0.2666,-0.2689,-0.271,-0.2701,-0.2694,-0.2706,-0.2688,-0.2666,-0.2691,-0.2681,-0.2679,-0.2623,-0.2604,-0.2524,-0.2581,-0.2474,-0.2458,-0.2615,-0.2613,-0.2612,-0.261,0,0,-0.25,-0.2581,-0.2587,-0.2595,-0.2658,-0.2679,-0.2734,-0.2763,-0.2749,-0.2774,-0.2745,-0.2797,-0.2766,-0.2756,-0.2743,-0.2705,-0.2646,-0.2658,-0.2651,-0.2536,-0.2448,-0.2379,-0.2354,-0.2614,-0.2612,-0.2611,-0.2379,0,-0.2523,-0.2584,-0.2639,-0.2679,-0.2695,-0.2734,-0.2769,-0.2797,-0.2796,-0.2769,-0.2773,-0.2741,-0.2795,-0.2762,-0.2749,-0.2651,-0.2609,-0.2708,-0.2432,-0.2423,-0.2334,-0.2337,-0.2226,-0.2008,-0.2363,-0.2361,-0.2359,0,-0.2548,-0.2583,-0.2621,-0.2671,-0.2685,-0.2711,-0.2732,-0.2768,-0.2765,-0.276,-0.2755,-0.2719,-0.2695,-0.2707,-0.2588,-0.264,-0.2566,-0.2499,-0.2487,-0.2372,-0.2326,-0.2013,-0.1965,-0.1952,-0.2333,-0.2335,-0.2337,0,-0.2472,-0.2565,-0.258,-0.26,-0.2662,-0.2683,-0.272,-0.2745,-0.2731,-0.2722,-0.2664,-0.2656,-0.2571,-0.2521,-0.2446,-0.2486,-0.2267,-0.2286,-0.2157,-0.215,-0.1975,-0.1956,-0.1855,-0.2192,-0.2192,-0.2193,-0.2194,0,-0.2435,-0.2437,-0.2536,-0.2522,-0.2522,-0.2619,-0.2598,-0.2633,-0.2631,-0.2577,-0.2629,-0.2543,-0.2514,-0.2404,-0.2378,-0.2207,-0.2208,-0.2143,-0.2083,-0.201,-0.1998,-0.1913,-0.1953,-0.2184,-0.2186,-0.2188,-0.2189,0,-0.2266,-0.236,-0.235,-0.2432,-0.246,-0.2439,-0.2492,-0.2477,-0.2508,-0.2424,-0.2405,-0.2378,-0.2254,-0.2217,-0.2074,-0.2059,-0.1889,-0.1892,-0.1807,-0.1744,-0.1626,-0.1676,-0.149,-0.1454,-0.1679,-0.1675,-0.1673,0,-0.2154,-0.2136,-0.2214,-0.2219,-0.2236,-0.2259,-0.2276,-0.2371,-0.2364,-0.2317,-0.2255,-0.2127,-0.2022,-0.1811,-0.1762,-0.1649,-0.1714,-0.1497,-0.1582,-0.1584,-0.1595,-0.1653,-0.1642,-0.1376,-0.1371,-0.1367,-0.1364,0,-0.1897,-0.1934,-0.1935,-0.1967,-0.1995,-0.2015,-0.2064,-0.2037,-0.2136,-0.2074,-0.197,-0.187,-0.1703,-0.153,-0.1423,-0.1376,-0.1456,-0.1411,-0.1417,-0.1353,-0.1398,-0.1345,-0.1567,-0.1329,-0.1332,-0.1335,-0.1337,-0.1338,-0.1671,-0.1626,-0.1678,-0.1684,-0.174,-0.1763,-0.1728,-0.1792,-0.1748,-0.1654,-0.1687,-0.1495,-0.1388,-0.1211,-0.1168,-0.1062,-0.1172,-0.1035,-0.1088,-0.1141,-0.1139,-0.1292,-0.1006,-0.1007,-0.1009,-0.101,-0.1011,0,-0.1408,-0.142,-0.1409,-0.1453,-0.1461,-0.1555,-0.1581,-0.1532,-0.1448,-0.1383,-0.1287,-0.1076,-0.0946,-0.0893,-0.0811,-0.0763,-0.0791,-0.0761,-0.082,-0.0821,-0.0916,-0.0941,-0.0622,-0.0622,-0.0622,-0.0623,-0.0623,-0.0623,-0.1282,-0.1219,-0.1244,-0.1191,-0.122,-0.1176,-0.116,-0.1091,-0.1034,-0.0811,-0.0659,-0.0567,-0.0576,-0.0686,-0.0653,-0.0626,-0.0661,-0.0612,-0.0693,-0.0782,-0.0814,-0.0844,-0.0876,-0.0549,-0.0549,-0.0542,-0.0542,-0.0542]},{"header":{"parameterUnit":"m.s-1","parameterCategory":2,"la1":30.2991,"la2":30.254,"lo1":-89.0895,"lo2":-89.0444,"dy":0.0017,"dx":0.0017,"nx":28,"ny":28,"refTime":"2024-07-24T21:00:00:Z","depth":"0","parameterNumber":3,"parameterNumberName":"V-component_of_CURRENTS"},"data":[0,0,0,0,0,0,0,0,0,0,0,0,0,0,0,0,0,0,0,0,0,0,0,0,0,0,0,0,0,0,0,0,0,0,0,0,0,0,0,0,0,0,0,0,0,0,0,0,0,0,0,0,0,0,0,0,0,0,0.0451,0.0452,0,0.053,0.0531,0.0531,0.0599,0.06,0.0601,0.0602,0.069,0.0691,0.0693,0,0,0,0,0,0,0,0,0,0,0,0,0,0.0318,0.032,0.0451,0.0452,0.0454,0.053,0.0531,0.0532,0.0599,0.06,0.0601,0.0602,0.0689,0.0691,0.0693,0,0,0,0,0,0,0,0,0,0,0,0,0,0.0383,0.0321,0.0451,0.0498,0.0503,0.053,0.0531,0.0532,0.0599,0.06,0.0601,0.0603,0.0689,0.0691,0.0693,0.068,0,0,0.07,0.0701,0,0,0,0,0,0,0,0,0.0379,0.0387,0.049,0.0494,0.05,0.0558,0.0516,0.0582,0.0598,0.056,0.0602,0.0603,0.0646,0.0652,0.0662,0.0684,0.0687,0.07,0.0702,0.0702,0.0703,0,0,0,0,0,0,0,0.0374,0.0384,0.0481,0.0491,0.0497,0.05,0.0511,0.0529,0.0594,0.0564,0.0569,0.058,0.0649,0.0659,0.0664,0.0689,0.07,0.0702,0.0703,0.0704,0.0719,0.0718,0,0,0,0,0,0,0.0369,0.038,0.0478,0.0483,0.0443,0.0502,0.0514,0.0536,0.0594,0.0604,0.0579,0.0583,0.0655,0.0661,0.0668,0.0661,0.0702,0.0705,0.0706,0.0719,0.0718,0.0717,0,0,0,0,0,0,0.0366,0.0377,0.0475,0.0434,0.0447,0.0503,0.0527,0.0537,0.0551,0.0605,0.0616,0.0584,0.0656,0.0664,0.0675,0.0665,0.0706,0.0708,0.0721,0.0719,0.0718,0.0644,0,0,0,0,0,0,0.0362,0.0376,0.0383,0.0434,0.0449,0.048,0.0527,0.0538,0.0556,0.0563,0.0612,0.0622,0.0658,0.0671,0.0677,0.0669,0.0709,0.0722,0.072,0.0718,0.0648,0.064,0.0634,0,0,0,0,0,0.0357,0.036,0.0383,0.0395,0.046,0.0479,0.0486,0.0529,0.0555,0.0549,0.0583,0.0621,0.0664,0.0671,0.0679,0.0671,0.0723,0.072,0.0718,0.0651,0.0642,0.0634,0,0,0,0,0,0,0.0307,0.0369,0.0395,0.0418,0.0442,0.0491,0.0491,0.0521,0.0543,0.0548,0.0603,0.0614,0.062,0.065,0.0656,0.0669,0.0701,0.07,0.0647,0.0639,0.0633,0.0634,0.0711,0,0,0,0,0,0.0299,0.0314,0.0369,0.038,0.0393,0.0439,0.0452,0.0478,0.0509,0.0521,0.0558,0.0592,0.0615,0.063,0.0651,0.0654,0.0669,0.0655,0.0648,0.0642,0.0647,0.0658,0.0652,0.071,0.071,0.071,0,0,0.0277,0.0315,0.0322,0.0369,0.0393,0.0394,0.045,0.0459,0.0461,0.0525,0.0531,0.0565,0.0608,0.0613,0.0619,0.0639,0.0626,0.0639,0.0634,0.0643,0.0655,0.065,0.0645,0.0709,0.0709,0.0709,0,0,0.0232,0.028,0.0272,0.029,0.0324,0.0351,0.0351,0.0394,0.0417,0.0422,0.0472,0.0501,0.0528,0.0567,0.0588,0.0554,0.0585,0.0557,0.053,0.054,0.0535,0.0532,0.0511,0.0506,0.0559,0.0559,0.0559,0,0.0198,0.0215,0.0266,0.0263,0.0275,0.0328,0.0315,0.0336,0.0375,0.0396,0.0411,0.0473,0.051,0.0537,0.053,0.0541,0.0538,0.0558,0.0531,0.0528,0.0525,0.0505,0.0501,0.0555,0.0556,0.0556,0.0556,0,0.0152,0.0161,0.0154,0.0174,0.0188,0.0182,0.0227,0.0238,0.0272,0.0309,0.0341,0.039,0.0436,0.0448,0.048,0.0487,0.0484,0.0515,0.0551,0.0515,0.0496,0.0493,0.055,0.0551,0.0552,0.0553,0,0,0.0097,0.0115,0.0116,0.0116,0.0145,0.0155,0.0153,0.0184,0.0196,0.0236,0.0253,0.0309,0.0356,0.0383,0.043,0.0448,0.0421,0.047,0.0472,0.0447,0.041,0.0474,0.0477,0.0441,0.0441,0.0441,0.0391,0,0.0044,0.0027,0.0047,0.0022,0.0024,0.0065,0.0064,0.01,0.0139,0.0162,0.0234,0.0262,0.0324,0.0343,0.037,0.0405,0.0414,0.043,0.0451,0.0452,0.0513,0.0477,0.0504,0.0469,0.0388,0.0388,0.0387,0,0.0015,0.0005,-0.002,-0.002,-0.0017,-0.0033,0.0001,0.0003,0.0054,0.0085,0.0137,0.0189,0.0229,0.028,0.0327,0.0329,0.0366,0.0395,0.0394,0.0486,0.0512,0.05,0.0467,0.057,0.0383,0.0384,0.0384,0,0.001,-0.0027,-0.0044,-0.0045,-0.0048,-0.0056,-0.0058,-0.0012,0.0003,0.0038,0.0041,0.011,0.0124,0.0185,0.0275,0.0283,0.0318,0.0336,0.0427,0.043,0.0477,0.0486,0.0554,0.0371,0.0371,0.0371,0.0371,0,-0.0005,-0.0017,-0.0054,-0.0056,-0.0093,-0.008,-0.0092,-0.008,-0.0059,-0.0058,0.0001,0.0005,0.0101,0.0149,0.023,0.0322,0.0285,0.0416,0.0429,0.0449,0.0456,0.0571,0.0612,0.0369,0.0369,0.037,0.037,0,0.0031,0.0007,-0.0027,-0.007,-0.0085,-0.0104,-0.0124,-0.0133,-0.0119,-0.0127,-0.0125,-0.0088,-0.0033,0.0083,0.0169,0.0258,0.041,0.0397,0.0405,0.0423,0.0607,0.0641,0.0702,0.0767,0.0455,0.0456,0.0457,0,0.0063,0.0052,-0.003,-0.0074,-0.01,-0.0131,-0.0155,-0.0151,-0.0161,-0.018,-0.0198,-0.0154,-0.0108,0.0042,0.0217,0.0367,0.046,0.0479,0.0526,0.0624,0.067,0.068,0.0731,0.0528,0.053,0.0531,0.0532,0,0.0105,0.0065,0.0013,-0.0082,-0.0137,-0.0186,-0.0224,-0.0241,-0.0251,-0.0268,-0.0301,-0.0274,-0.0108,0.0083,0.0317,0.0408,0.0559,0.0514,0.0613,0.074,0.0754,0.0822,0.0531,0.0545,0.0543,0.0543,0.0542,0.0541,0.0124,0.0074,-0.0019,-0.0111,-0.0184,-0.0259,-0.0291,-0.034,-0.0375,-0.0382,-0.035,-0.0196,0.003,0.0358,0.0463,0.0716,0.0671,0.0783,0.0809,0.0804,0.0907,0.0644,0.0692,0.0692,0.0691,0.0691,0.0691,0,0.0131,0.0053,-0.0038,-0.0171,-0.0265,-0.0282,-0.0352,-0.0383,-0.045,-0.0334,-0.0306,0.0161,0.036,0.0628,0.0902,0.1013,0.1024,0.1057,0.107,0.1105,0.0867,0.0916,0.102,0.1019,0.1019,0.1019,0.1019,0.1019,0.0127,0.0027,-0.0044,-0.022,-0.0304,-0.0389,-0.0428,-0.0467,-0.0379,-0.0136,0.0251,0.0536,0.092,0.1063,0.1262,0.1274,0.1375,0.1335,0.1401,0.1238,0.1214,0.1192,0.125,0.1421,0.1422,0.1631,0.1633,0.1634]}],[{"header":{"parameterUnit":"m.s-1","parameterCategory":2,"la1":30.2991,"la2":30.254,"lo1":-89.0895,"lo2":-89.0444,"dy":0.0017,"dx":0.0017,"nx":28,"ny":28,"refTime":"2024-07-24T21:00:00:Z","depth":"2","parameterNumber":2,"parameterNumberName":"U-component_of_CURRENTS"},"data":[0,0,0,0,0,0,0,0,0,0,0,0,0,0,0,0,0,0,0,0,0,0,0,0,0,0,0,0,0,0,0,0,0,0,0,0,0,0,0,0,0,0,0,0,0,0,0,0,0,0,0,0,0,0,0,0,0,0,-0.1709,-0.171,0,-0.1777,-0.1778,-0.1778,-0.1774,-0.1773,-0.1772,-0.1771,-0.205,-0.2058,-0.2066,0,0,0,0,0,0,0,0,0,0,0,0,0,-0.1667,-0.1667,-0.1709,-0.171,-0.1711,-0.1776,-0.1778,-0.1779,-0.1774,-0.1773,-0.1772,-0.177,-0.2047,-0.2057,-0.2067,0,0,0,0,0,0,0,0,0,0,0,0,0,-0.1706,-0.1668,-0.1709,-0.1715,-0.1717,-0.1776,-0.1778,-0.1779,-0.1775,-0.1773,-0.1771,-0.177,-0.2044,-0.2056,-0.2068,-0.218,0,0,-0.2107,-0.2113,0,0,0,0,0,0,0,0,-0.1704,-0.1708,-0.1714,-0.1715,-0.1716,-0.1764,-0.1865,-0.1923,-0.1775,-0.1754,-0.1771,-0.1769,-0.1974,-0.1992,-0.2008,-0.2194,-0.2205,-0.2108,-0.2116,-0.2122,-0.2125,0,0,0,0,0,0,0,-0.1701,-0.1705,-0.1738,-0.1715,-0.1716,-0.1746,-0.1749,-0.1875,-0.1878,-0.1756,-0.1755,-0.1761,-0.1976,-0.1995,-0.2015,-0.221,-0.2108,-0.2119,-0.2127,-0.2132,-0.2455,-0.2456,0,0,0,0,0,0,-0.1687,-0.1703,-0.1735,-0.1739,-0.1704,-0.1747,-0.1751,-0.1752,-0.1872,-0.1886,-0.1762,-0.1761,-0.1974,-0.2,-0.2025,-0.2162,-0.2121,-0.2133,-0.2141,-0.2454,-0.2455,-0.2456,0,0,0,0,0,0,-0.1686,-0.1689,-0.1733,-0.1722,-0.1729,-0.1749,-0.1751,-0.1754,-0.1775,-0.1874,-0.1893,-0.1779,-0.1974,-0.2007,-0.2128,-0.2173,-0.2139,-0.2151,-0.2453,-0.2454,-0.2456,-0.244,0,0,0,0,0,0,-0.1684,-0.1688,-0.1699,-0.172,-0.1729,-0.1785,-0.1752,-0.1756,-0.178,-0.1778,-0.1896,-0.1919,-0.1975,-0.2109,-0.2141,-0.219,-0.2161,-0.2452,-0.2454,-0.2455,-0.2439,-0.2441,-0.2442,0,0,0,0,0,-0.1682,-0.1704,-0.1699,-0.1703,-0.1737,-0.1787,-0.1796,-0.1805,-0.1782,-0.1813,-0.1868,-0.1915,-0.2142,-0.2121,-0.2158,-0.2212,-0.2451,-0.2453,-0.2455,-0.2439,-0.2441,-0.2442,0,0,0,0,0,0,-0.1687,-0.1706,-0.17,-0.1724,-0.1759,-0.1786,-0.18,-0.1813,-0.1877,-0.1878,-0.195,-0.198,-0.2102,-0.2157,-0.2131,-0.2303,-0.2298,-0.2308,-0.2272,-0.2275,-0.2277,-0.2197,-0.2171,0,0,0,0,0,-0.1693,-0.1717,-0.1737,-0.1761,-0.1761,-0.1782,-0.1804,-0.1825,-0.1874,-0.1897,-0.1974,-0.2054,-0.2143,-0.2204,-0.23,-0.2416,-0.2381,-0.2464,-0.2466,-0.2466,-0.2424,-0.236,-0.235,-0.2463,-0.2463,-0.2463,0,0,-0.1699,-0.1715,-0.1727,-0.1766,-0.1771,-0.1805,-0.179,-0.1833,-0.1878,-0.1929,-0.2015,-0.2084,-0.2174,-0.2284,-0.2343,-0.2336,-0.2431,-0.2469,-0.2469,-0.2425,-0.2361,-0.2349,-0.2339,-0.2465,-0.2465,-0.2464,0,0,-0.1729,-0.1728,-0.1753,-0.1776,-0.181,-0.1838,-0.185,-0.1896,-0.192,-0.2033,-0.2051,-0.211,-0.2297,-0.2317,-0.2363,-0.2431,-0.2442,-0.2495,-0.2445,-0.2386,-0.2374,-0.2363,-0.2354,-0.2342,-0.249,-0.249,-0.249,0,-0.1737,-0.1768,-0.1775,-0.1797,-0.1811,-0.1847,-0.1877,-0.1924,-0.2018,-0.2028,-0.2068,-0.2195,-0.2294,-0.2333,-0.236,-0.2432,-0.2411,-0.2436,-0.2381,-0.237,-0.2358,-0.2351,-0.2338,-0.249,-0.249,-0.249,-0.249,0,-0.1774,-0.1803,-0.1811,-0.1849,-0.1874,-0.1916,-0.1955,-0.2001,-0.2048,-0.2086,-0.2146,-0.2227,-0.2284,-0.2336,-0.2393,-0.2369,-0.2388,-0.2391,-0.2364,-0.2345,-0.2341,-0.2328,-0.2489,-0.2489,-0.2489,-0.249,0,0,-0.1772,-0.1832,-0.1829,-0.1849,-0.1904,-0.1927,-0.1979,-0.2026,-0.203,-0.212,-0.2112,-0.2234,-0.2235,-0.2278,-0.2322,-0.2269,-0.2227,-0.2304,-0.2301,-0.2271,-0.2124,-0.2058,-0.2038,-0.2214,-0.2211,-0.2208,-0.2169,0,-0.1798,-0.1851,-0.1876,-0.1931,-0.1952,-0.1974,-0.2017,-0.206,-0.21,-0.2119,-0.2132,-0.218,-0.2229,-0.2253,-0.2211,-0.2242,-0.2183,-0.2239,-0.2165,-0.2163,-0.2085,-0.2015,-0.1879,-0.1823,-0.2156,-0.2154,-0.2152,0,-0.1806,-0.1851,-0.1899,-0.1956,-0.1957,-0.2004,-0.2011,-0.206,-0.2074,-0.2103,-0.2089,-0.2112,-0.2102,-0.2123,-0.2079,-0.2118,-0.2109,-0.2092,-0.2091,-0.2005,-0.2067,-0.1888,-0.1786,-0.2129,-0.2131,-0.2133,-0.2134,0,-0.177,-0.1853,-0.1896,-0.1912,-0.1987,-0.1999,-0.2037,-0.2048,-0.2051,-0.2064,-0.2062,-0.2045,-0.2059,-0.2005,-0.203,-0.2055,-0.1942,-0.1984,-0.1887,-0.1887,-0.1737,-0.1726,-0.1864,-0.1864,-0.1864,-0.1865,-0.1865,0,-0.1766,-0.1791,-0.1891,-0.1902,-0.193,-0.199,-0.1992,-0.2011,-0.2027,-0.201,-0.2047,-0.201,-0.2019,-0.1979,-0.198,-0.19,-0.1912,-0.1833,-0.1837,-0.1738,-0.1728,-0.1962,-0.1974,-0.1863,-0.1863,-0.1864,-0.1864,0,-0.1683,-0.1761,-0.1807,-0.1897,-0.1907,-0.1919,-0.1947,-0.1939,-0.1993,-0.1957,-0.1959,-0.1985,-0.1946,-0.1921,-0.186,-0.1842,-0.1768,-0.1722,-0.1632,-0.1622,-0.1774,-0.1786,-0.1611,-0.1608,-0.1605,-0.1602,-0.16,0,-0.1635,-0.1665,-0.1747,-0.1745,-0.1779,-0.181,-0.1805,-0.1887,-0.1881,-0.1922,-0.1894,-0.1869,-0.1816,-0.1729,-0.1662,-0.1587,-0.1661,-0.1428,-0.1417,-0.1708,-0.1731,-0.1749,-0.1764,-0.1255,-0.125,-0.1246,-0.1243,0,-0.155,-0.1594,-0.1624,-0.1624,-0.1636,-0.1633,-0.1659,-0.1658,-0.1749,-0.1746,-0.1733,-0.1693,-0.162,-0.1473,-0.1392,-0.1343,-0.1436,-0.1345,-0.1619,-0.1339,-0.1367,-0.1393,-0.142,-0.1209,-0.1212,-0.1215,-0.1216,-0.1218,-0.1462,-0.1452,-0.1502,-0.1484,-0.1484,-0.1462,-0.1437,-0.1486,-0.1485,-0.1483,-0.1527,-0.1444,-0.141,-0.1204,-0.1118,-0.1068,-0.1179,-0.1137,-0.1151,-0.1168,-0.1132,-0.1152,-0.0951,-0.0953,-0.0954,-0.0956,-0.0957,0,-0.1354,-0.1352,-0.1339,-0.1335,-0.1284,-0.1332,-0.1323,-0.1299,-0.1275,-0.128,-0.125,-0.109,-0.0967,-0.0947,-0.0798,-0.0763,-0.0781,-0.0741,-0.0763,-0.0797,-0.0826,-0.0775,-0.0499,-0.0497,-0.0496,-0.0495,0,0,-0.1284,-0.1253,-0.125,-0.1155,-0.1129,-0.1057,-0.1033,-0.1013,-0.1001,-0.0943,-0.0901,-0.0935,-0.0919,-0.0718,-0.0653,-0.0546,-0.0674,-0.0519,-0.0884,-0.0944,-0.0973,-0.1047,-0.1004,0,0,0,0,0]},{"header":{"parameterUnit":"m.s-1","parameterCategory":2,"la1":30.2991,"la2":30.254,"lo1":-89.0895,"lo2":-89.0444,"dy":0.0017,"dx":0.0017,"nx":28,"ny":28,"refTime":"2024-07-24T21:00:00:Z","depth":"2","parameterNumber":3,"parameterNumberName":"V-component_of_CURRENTS"},"data":[0,0,0,0,0,0,0,0,0,0,0,0,0,0,0,0,0,0,0,0,0,0,0,0,0,0,0,0,0,0,0,0,0,0,0,0,0,0,0,0,0,0,0,0,0,0,0,0,0,0,0,0,0,0,0,0,0,0,-0.0489,-0.0489,0,-0.0453,-0.0453,-0.0452,-0.0414,-0.0414,-0.0413,-0.0413,-0.0176,-0.0171,-0.0165,0,0,0,0,0,0,0,0,0,0,0,0,0,-0.0433,-0.0434,-0.0489,-0.0489,-0.0488,-0.0453,-0.0453,-0.0452,-0.0414,-0.0414,-0.0413,-0.0413,-0.0178,-0.0171,-0.0164,0,0,0,0,0,0,0,0,0,0,0,0,0,-0.0433,-0.0435,-0.0489,-0.0466,-0.0463,-0.0453,-0.0453,-0.0452,-0.0414,-0.0414,-0.0413,-0.0412,-0.0181,-0.0172,-0.0163,-0.0124,0,0,-0.0137,-0.0133,0,0,0,0,0,0,0,0,-0.0433,-0.0435,-0.0469,-0.0467,-0.0464,-0.0438,-0.0346,-0.0333,-0.0415,-0.0432,-0.0413,-0.0412,-0.0246,-0.0232,-0.0229,-0.0113,-0.0103,-0.0136,-0.0131,-0.0127,-0.0124,0,0,0,0,0,0,0,-0.0433,-0.0436,-0.0474,-0.0469,-0.0466,-0.0425,-0.0425,-0.0344,-0.034,-0.0431,-0.0428,-0.0425,-0.0243,-0.0238,-0.0222,-0.0099,-0.0136,-0.0128,-0.0123,-0.012,0.0157,0.0159,0,0,0,0,0,0,-0.0445,-0.0437,-0.0475,-0.0473,-0.0447,-0.0427,-0.0427,-0.0447,-0.0345,-0.033,-0.0426,-0.0423,-0.0253,-0.0233,-0.0214,-0.0111,-0.0127,-0.0119,-0.0114,0.0155,0.0157,0.016,0,0,0,0,0,0,-0.0444,-0.045,-0.0477,-0.0452,-0.0453,-0.043,-0.0451,-0.0446,-0.0439,-0.0343,-0.0325,-0.0423,-0.0252,-0.0226,-0.0148,-0.0103,-0.0115,-0.0107,0.0152,0.0156,0.0158,0.0064,0,0,0,0,0,0,-0.0443,-0.045,-0.0457,-0.0455,-0.0455,-0.0476,-0.0452,-0.0446,-0.0438,-0.0435,-0.0334,-0.0313,-0.0249,-0.0162,-0.014,-0.0091,-0.01,0.015,0.0154,0.0157,0.0065,0.0064,0.0063,0,0,0,0,0,-0.0441,-0.0464,-0.0459,-0.0462,-0.0471,-0.0477,-0.0474,-0.0452,-0.0439,-0.0441,-0.0375,-0.0316,-0.0119,-0.0155,-0.0129,-0.0076,0.0148,0.0153,0.0157,0.0065,0.0064,0.0063,0,0,0,0,0,0,-0.044,-0.0462,-0.0456,-0.0483,-0.048,-0.0471,-0.0473,-0.0457,-0.0412,-0.0402,-0.0312,-0.0286,-0.0189,-0.0122,-0.0164,0.0021,0.0035,0.0045,-0.0043,-0.0043,-0.0044,-0.0075,-0.0093,0,0,0,0,0,-0.0446,-0.047,-0.0475,-0.0493,-0.0502,-0.0487,-0.0483,-0.0471,-0.0437,-0.0419,-0.0348,-0.0251,-0.015,-0.0095,-0.0005,0.0077,0.0102,0.014,0.0139,0.0138,0.0134,0.0142,0.0138,0.0175,0.0175,0.0175,0,0,-0.0447,-0.0463,-0.0473,-0.0494,-0.0495,-0.0506,-0.0484,-0.049,-0.0474,-0.0393,-0.0345,-0.0257,-0.0129,-0.0036,0.0017,0.0025,0.0151,0.0144,0.0141,0.0139,0.0146,0.0141,0.0137,0.0178,0.0178,0.0177,0,0,-0.0466,-0.0485,-0.051,-0.0523,-0.0531,-0.0519,-0.0523,-0.0513,-0.0488,-0.0436,-0.0356,-0.0268,-0.0125,-0.0037,0.0033,0.0084,0.0141,0.0148,0.0121,0.0127,0.0122,0.0118,0.0168,0.017,0.015,0.015,0.015,0,-0.0462,-0.05,-0.0513,-0.0544,-0.0552,-0.053,-0.0548,-0.0522,-0.0477,-0.0443,-0.0425,-0.0232,-0.0127,-0.0008,0.0029,0.008,0.0102,0.0102,0.0117,0.0114,0.0111,0.0164,0.0166,0.0146,0.0146,0.0147,0.0147,0,-0.051,-0.053,-0.0552,-0.0581,-0.0588,-0.0605,-0.0583,-0.0567,-0.0525,-0.0476,-0.0373,-0.0265,-0.0141,-0.0079,0.0001,0.0071,0.0102,0.0101,0.0097,0.01,0.0159,0.0162,0.014,0.0142,0.0143,0.0144,0,0,-0.0532,-0.0572,-0.0582,-0.0592,-0.0612,-0.0622,-0.0608,-0.0571,-0.0545,-0.0478,-0.0431,-0.0258,-0.0197,-0.0113,-0.0012,0.0008,0.0036,0.0054,0.0056,0.0067,0.0078,0.0105,0.0112,0.0019,0.0019,0.0019,0.0133,0,-0.056,-0.0613,-0.0623,-0.0649,-0.0674,-0.0662,-0.064,-0.0602,-0.0551,-0.0497,-0.0387,-0.0291,-0.0206,-0.0144,-0.0107,0.0016,0.0039,0.0008,0.0109,0.0113,0.0102,0.0114,0.0104,0.0203,0.0137,0.0138,0.0138,0,-0.062,-0.0636,-0.068,-0.0676,-0.0686,-0.0691,-0.0674,-0.0648,-0.0567,-0.0518,-0.0438,-0.0352,-0.0232,-0.0209,-0.0055,-0.008,-0.0,0.0055,0.006,0.0115,0.0145,0.0192,0.0213,0.0145,0.0145,0.0144,0.0144,0,-0.0661,-0.068,-0.0708,-0.0722,-0.0717,-0.072,-0.07,-0.0651,-0.0622,-0.054,-0.0506,-0.0381,-0.0297,-0.022,-0.005,-0.0056,0.0073,0.0075,0.0162,0.0167,0.0197,0.0203,0.0123,0.0123,0.0123,0.0122,0.0122,0,-0.0719,-0.0739,-0.0725,-0.0757,-0.0764,-0.0743,-0.0745,-0.071,-0.0648,-0.0602,-0.0507,-0.0453,-0.0306,-0.02,-0.0081,0.0077,0.0057,0.0164,0.0188,0.0172,0.0175,0.015,0.0151,0.0127,0.0126,0.0125,0.0124,0,-0.0794,-0.0789,-0.0823,-0.0809,-0.0803,-0.0819,-0.0797,-0.0779,-0.0709,-0.0664,-0.0637,-0.0487,-0.0334,-0.0196,-0.0036,0.006,0.018,0.0226,0.0226,0.0247,0.0283,0.0279,0.0341,0.0342,0.0344,0.0345,0.0346,0,-0.084,-0.0864,-0.0885,-0.0897,-0.0899,-0.0902,-0.0894,-0.0832,-0.0807,-0.0681,-0.0649,-0.0496,-0.0363,-0.0105,0.0061,0.0249,0.0233,0.0332,0.0308,0.0283,0.0301,0.0295,0.0289,0.0335,0.0336,0.0336,0.0337,0,-0.0907,-0.0922,-0.0946,-0.0976,-0.0988,-0.0994,-0.0968,-0.0958,-0.0861,-0.0789,-0.0648,-0.0536,-0.0278,-0.0054,0.0173,0.027,0.0302,0.0352,0.0315,0.027,0.0283,0.0298,0.0292,0.0343,0.0342,0.0342,0.0342,0.0341,-0.0947,-0.0982,-0.1006,-0.1035,-0.1049,-0.1044,-0.1044,-0.0984,-0.092,-0.0764,-0.0654,-0.044,-0.0242,0.0108,0.0252,0.0378,0.0377,0.0412,0.0408,0.0403,0.037,0.0383,0.0459,0.046,0.046,0.046,0.046,0,-0.0966,-0.0996,-0.1037,-0.1068,-0.1084,-0.1081,-0.1051,-0.1011,-0.0919,-0.0751,-0.0583,-0.0322,-0.007,0.0119,0.0333,0.0456,0.043,0.0463,0.0414,0.0408,0.0403,0.0367,0.0458,0.0458,0.0458,0.0458,0,0,-0.0968,-0.1009,-0.1033,-0.1071,-0.1088,-0.1089,-0.1071,-0.0988,-0.0867,-0.0672,-0.0493,-0.0265,-0.0039,0.0116,0.0268,0.037,0.0346,0.0367,0.036,0.0278,0.0271,0.0371,0.0309,0,0,0,0,0]}],[{"header":{"parameterUnit":"m.s-1","parameterCategory":2,"la1":30.2991,"la2":30.254,"lo1":-89.0895,"lo2":-89.0444,"dy":0.0017,"dx":0.0017,"nx":28,"ny":28,"refTime":"2024-07-24T21:00:00:Z","depth":"4","parameterNumber":2,"parameterNumberName":"U-component_of_CURRENTS"},"data":[0,0,0,0,0,0,0,0,0,0,0,0,0,0,0,0,0,0,0,0,0,0,0,0,0,0,0,0,0,0,0,0,0,0,0,0,0,0,0,0,0,0,0,0,0,0,0,0,0,0,0,0,0,0,0,0,0,0,-0.1083,-0.1083,0,-0.1131,-0.1132,-0.1132,-0.116,-0.116,-0.1161,-0.1161,-0.1201,-0.1202,-0.1202,0,0,0,0,0,0,0,0,0,0,0,0,0,-0.1056,-0.1056,-0.1083,-0.1083,-0.1084,-0.1131,-0.1132,-0.1133,-0.116,-0.116,-0.1161,-0.1161,-0.12,-0.1201,-0.1203,0,0,0,0,0,0,0,0,0,0,0,0,0,-0.1082,-0.1056,-0.1083,-0.1104,-0.1106,-0.1131,-0.1132,-0.1133,-0.116,-0.116,-0.1161,-0.1161,-0.12,-0.1201,-0.1203,-0.1207,0,0,-0.1207,-0.1208,0,0,0,0,0,0,0,0,-0.108,-0.1083,-0.11,-0.1102,-0.1105,-0.114,-0.1137,-0.1157,-0.116,-0.1139,-0.1161,-0.1161,-0.118,-0.1183,-0.1191,-0.1209,-0.1211,-0.1207,-0.1208,-0.1209,-0.1209,0,0,0,0,0,0,0,-0.1078,-0.1081,-0.1102,-0.1101,-0.1104,-0.1125,-0.1129,-0.1141,-0.1157,-0.1141,-0.1143,-0.1149,-0.1181,-0.119,-0.1192,-0.1212,-0.1207,-0.1208,-0.1209,-0.121,-0.1265,-0.1266,0,0,0,0,0,0,-0.1071,-0.1079,-0.11,-0.1103,-0.1093,-0.1125,-0.1129,-0.1128,-0.1158,-0.1162,-0.1149,-0.115,-0.1187,-0.1191,-0.1194,-0.1231,-0.1209,-0.121,-0.1211,-0.1265,-0.1265,-0.1266,0,0,0,0,0,0,-0.107,-0.1072,-0.1098,-0.1093,-0.1098,-0.1125,-0.1124,-0.1129,-0.1154,-0.1164,-0.1168,-0.117,-0.1188,-0.1192,-0.1226,-0.1232,-0.1211,-0.1212,-0.1264,-0.1265,-0.1266,-0.1286,0,0,0,0,0,0,-0.1069,-0.1071,-0.1077,-0.1092,-0.1098,-0.112,-0.1124,-0.113,-0.1156,-0.1159,-0.1183,-0.1186,-0.1188,-0.1225,-0.1228,-0.1233,-0.1213,-0.1263,-0.1264,-0.1266,-0.1285,-0.1288,-0.129,0,0,0,0,0,-0.1067,-0.1073,-0.1077,-0.108,-0.1102,-0.112,-0.1126,-0.1146,-0.1157,-0.1169,-0.1194,-0.1186,-0.1234,-0.1227,-0.1231,-0.1236,-0.1263,-0.1264,-0.1265,-0.1283,-0.1287,-0.129,0,0,0,0,0,0,-0.1066,-0.1076,-0.1081,-0.109,-0.1107,-0.1125,-0.1142,-0.1155,-0.1184,-0.1192,-0.1203,-0.1208,-0.1236,-0.1238,-0.123,-0.1255,-0.1243,-0.1245,-0.1255,-0.1259,-0.1262,-0.1262,-0.1214,0,0,0,0,0,-0.1067,-0.1074,-0.1087,-0.1096,-0.1105,-0.1127,-0.1142,-0.1154,-0.1177,-0.1191,-0.121,-0.1228,-0.1242,-0.1254,-0.1266,-0.1287,-0.1294,-0.129,-0.1293,-0.1295,-0.1298,-0.1329,-0.1334,-0.1271,-0.1271,-0.1271,0,0,-0.1072,-0.1077,-0.1083,-0.1097,-0.1113,-0.1129,-0.1137,-0.116,-0.1177,-0.119,-0.1228,-0.1242,-0.1251,-0.1273,-0.1284,-0.1278,-0.1315,-0.1297,-0.1299,-0.1301,-0.1331,-0.1337,-0.1342,-0.1272,-0.1272,-0.1271,0,0,-0.1077,-0.1087,-0.1093,-0.1107,-0.1129,-0.1142,-0.1152,-0.1179,-0.1196,-0.1233,-0.1241,-0.1262,-0.1294,-0.1296,-0.1301,-0.1327,-0.133,-0.133,-0.1345,-0.1375,-0.1381,-0.1386,-0.1395,-0.1401,-0.1331,-0.1331,-0.1331,0,-0.1085,-0.1091,-0.1101,-0.111,-0.1127,-0.1149,-0.1165,-0.1184,-0.1221,-0.124,-0.1248,-0.1301,-0.13,-0.1325,-0.1329,-0.1331,-0.135,-0.1331,-0.1379,-0.1384,-0.1389,-0.1398,-0.1404,-0.1332,-0.1332,-0.1332,-0.1332,0,-0.1088,-0.1103,-0.1111,-0.1128,-0.1146,-0.1166,-0.1188,-0.1213,-0.1241,-0.1263,-0.1306,-0.1322,-0.1352,-0.1349,-0.1347,-0.1377,-0.1379,-0.138,-0.137,-0.1397,-0.1404,-0.141,-0.1334,-0.1333,-0.1333,-0.1333,0,0,-0.1076,-0.1108,-0.1112,-0.1125,-0.1159,-0.117,-0.1202,-0.1236,-0.127,-0.1303,-0.1354,-0.1361,-0.138,-0.1387,-0.1389,-0.1407,-0.1442,-0.1411,-0.1412,-0.142,-0.1507,-0.1374,-0.1367,-0.1464,-0.1466,-0.1467,-0.1496,0,-0.1079,-0.1096,-0.1118,-0.1146,-0.1157,-0.1192,-0.1226,-0.1258,-0.1299,-0.1356,-0.1373,-0.1422,-0.1392,-0.1421,-0.1432,-0.1453,-0.1461,-0.1433,-0.1481,-0.1482,-0.136,-0.137,-0.1471,-0.15,-0.1502,-0.1503,-0.1503,0,-0.1068,-0.1082,-0.1107,-0.1155,-0.1167,-0.1193,-0.1251,-0.1287,-0.1358,-0.1396,-0.1442,-0.1476,-0.1507,-0.1488,-0.1519,-0.1512,-0.1505,-0.151,-0.1512,-0.1384,-0.1359,-0.1471,-0.1514,-0.1513,-0.1512,-0.1512,-0.1511,0,-0.1029,-0.1074,-0.1096,-0.1109,-0.1167,-0.1193,-0.1232,-0.1298,-0.1342,-0.1432,-0.1483,-0.153,-0.1569,-0.1581,-0.1564,-0.1565,-0.1598,-0.1601,-0.1468,-0.1459,-0.1564,-0.1558,-0.1616,-0.1616,-0.1615,-0.1615,-0.1615,0,-0.1004,-0.1021,-0.1083,-0.1087,-0.1126,-0.1178,-0.1234,-0.1284,-0.1379,-0.1433,-0.1504,-0.1547,-0.1599,-0.1619,-0.16,-0.1535,-0.162,-0.1466,-0.1457,-0.157,-0.1565,-0.1568,-0.1562,-0.1616,-0.1616,-0.1616,-0.1616,0,-0.0941,-0.0987,-0.1011,-0.1077,-0.1104,-0.1127,-0.1221,-0.1265,-0.1365,-0.1443,-0.1479,-0.1578,-0.1589,-0.1604,-0.1625,-0.156,-0.1529,-0.148,-0.1589,-0.1586,-0.1368,-0.1363,-0.1358,-0.1354,-0.135,-0.1347,-0.1344,0,-0.0908,-0.0916,-0.0983,-0.1003,-0.1033,-0.1085,-0.1128,-0.1236,-0.1284,-0.1434,-0.1463,-0.1532,-0.1564,-0.1487,-0.151,-0.146,-0.1427,-0.1414,-0.1392,-0.135,-0.1342,-0.1343,-0.1343,-0.1338,-0.1337,-0.1336,-0.1335,0,-0.0841,-0.0875,-0.0891,-0.093,-0.0971,-0.1016,-0.1084,-0.1116,-0.1246,-0.1352,-0.14,-0.1413,-0.1419,-0.1408,-0.1364,-0.1329,-0.1434,-0.1374,-0.1382,-0.1361,-0.1325,-0.1322,-0.1326,-0.1322,-0.1324,-0.1325,-0.1326,0,-0.0793,-0.0788,-0.0822,-0.0846,-0.0899,-0.0931,-0.0977,-0.1033,-0.1098,-0.1267,-0.1271,-0.1335,-0.1409,-0.1338,-0.1304,-0.1249,-0.1229,-0.1196,-0.1213,-0.1228,-0.1164,-0.1099,-0.1013,0,0,0,0,0,-0.0745,-0.0731,-0.0743,-0.0765,-0.0814,-0.0846,-0.0947,-0.1003,-0.1129,-0.1125,-0.1198,-0.1191,-0.1169,-0.1202,-0.1112,-0.1224,-0.1222,-0.1114,-0.119,-0.1248,-0.1264,-0.1196,0,0,0,0,0,0,-0.0711,-0.0715,-0.0709,-0.0694,-0.0698,-0.0747,-0.0807,-0.0894,-0.0898,-0.1027,-0.1011,-0.1104,-0.1082,-0.1183,-0.1081,-0.1084,-0.1104,-0.1148,-0.1145,-0.124,-0.1254,-0.1266,-0.1202,0,0,0,0,0]},{"header":{"parameterUnit":"m.s-1","parameterCategory":2,"la1":30.2991,"la2":30.254,"lo1":-89.0895,"lo2":-89.0444,"dy":0.0017,"dx":0.0017,"nx":28,"ny":28,"refTime":"2024-07-24T21:00:00:Z","depth":"4","parameterNumber":3,"parameterNumberName":"V-component_of_CURRENTS"},"data":[0,0,0,0,0,0,0,0,0,0,0,0,0,0,0,0,0,0,0,0,0,0,0,0,0,0,0,0,0,0,0,0,0,0,0,0,0,0,0,0,0,0,0,0,0,0,0,0,0,0,0,0,0,0,0,0,0,0,-0.0361,-0.036,0,-0.0339,-0.0339,-0.0339,-0.032,-0.032,-0.032,-0.0319,-0.0301,-0.03,-0.03,0,0,0,0,0,0,0,0,0,0,0,0,0,-0.0339,-0.034,-0.0361,-0.036,-0.036,-0.0339,-0.0339,-0.0339,-0.032,-0.032,-0.0319,-0.0319,-0.0301,-0.0301,-0.03,0,0,0,0,0,0,0,0,0,0,0,0,0,-0.0337,-0.034,-0.0361,-0.0348,-0.0347,-0.0339,-0.0339,-0.0339,-0.032,-0.032,-0.0319,-0.0319,-0.0301,-0.0301,-0.03,-0.0306,0,0,-0.0299,-0.0299,0,0,0,0,0,0,0,0,-0.0337,-0.0337,-0.035,-0.0349,-0.0347,-0.0331,-0.0324,-0.0328,-0.032,-0.0331,-0.0319,-0.0319,-0.0311,-0.031,-0.0308,-0.0305,-0.0304,-0.0299,-0.0299,-0.0299,-0.0298,0,0,0,0,0,0,0,-0.0337,-0.0338,-0.0353,-0.035,-0.0348,-0.0327,-0.0327,-0.0325,-0.0324,-0.033,-0.0328,-0.0325,-0.031,-0.0308,-0.0307,-0.0304,-0.0299,-0.0299,-0.0298,-0.0298,-0.0317,-0.0317,0,0,0,0,0,0,-0.0342,-0.0339,-0.0353,-0.0352,-0.034,-0.0328,-0.0328,-0.0337,-0.0324,-0.0321,-0.0326,-0.0324,-0.0309,-0.0307,-0.0306,-0.0327,-0.0299,-0.0298,-0.0298,-0.0316,-0.0317,-0.0318,0,0,0,0,0,0,-0.0342,-0.0344,-0.0354,-0.0343,-0.0343,-0.0329,-0.034,-0.0337,-0.0337,-0.032,-0.0318,-0.0329,-0.0308,-0.0307,-0.0309,-0.0325,-0.0298,-0.0298,-0.0315,-0.0316,-0.0317,-0.0358,0,0,0,0,0,0,-0.0341,-0.0344,-0.0353,-0.0344,-0.0344,-0.0362,-0.034,-0.0337,-0.0335,-0.0334,-0.0322,-0.032,-0.0308,-0.0309,-0.0308,-0.0324,-0.0297,-0.0314,-0.0316,-0.0317,-0.0356,-0.036,-0.0364,0,0,0,0,0,-0.0341,-0.0357,-0.0354,-0.0356,-0.0357,-0.0363,-0.0361,-0.0349,-0.0336,-0.0345,-0.0332,-0.032,-0.0317,-0.031,-0.0308,-0.0324,-0.0314,-0.0315,-0.0317,-0.0354,-0.0359,-0.0364,0,0,0,0,0,0,-0.0349,-0.0356,-0.0353,-0.037,-0.0371,-0.0359,-0.0363,-0.0354,-0.035,-0.0346,-0.0328,-0.0325,-0.0334,-0.0324,-0.0316,-0.0334,-0.0315,-0.0316,-0.0343,-0.0348,-0.0353,-0.0339,-0.0297,0,0,0,0,0,-0.0357,-0.0373,-0.0372,-0.0386,-0.0387,-0.0376,-0.0375,-0.0369,-0.0363,-0.036,-0.0353,-0.0344,-0.0339,-0.0339,-0.0336,-0.0345,-0.0295,-0.0356,-0.036,-0.0364,-0.0352,-0.0278,-0.0273,-0.0323,-0.0323,-0.0323,0,0,-0.0362,-0.0368,-0.0377,-0.0389,-0.0386,-0.0399,-0.0375,-0.0381,-0.039,-0.0359,-0.0372,-0.036,-0.0345,-0.0355,-0.0358,-0.0349,-0.0327,-0.0366,-0.0369,-0.0355,-0.0279,-0.0273,-0.0268,-0.0324,-0.0324,-0.0324,0,0,-0.0383,-0.0389,-0.041,-0.0417,-0.042,-0.0417,-0.0422,-0.0419,-0.0416,-0.0425,-0.0403,-0.0392,-0.04,-0.0383,-0.0376,-0.04,-0.0351,-0.0413,-0.0424,-0.0353,-0.0347,-0.0341,-0.0281,-0.027,-0.0416,-0.0416,-0.0416,0,-0.0386,-0.0417,-0.0415,-0.0436,-0.0444,-0.0429,-0.045,-0.0448,-0.0446,-0.0439,-0.0437,-0.0412,-0.0407,-0.0391,-0.0407,-0.0408,-0.0361,-0.0406,-0.0355,-0.0349,-0.0342,-0.0282,-0.0268,-0.0418,-0.0418,-0.0418,-0.0417,0,-0.0427,-0.0447,-0.0459,-0.0484,-0.0494,-0.0509,-0.0508,-0.0514,-0.0507,-0.0493,-0.0477,-0.0455,-0.0432,-0.044,-0.0435,-0.0398,-0.0379,-0.0367,-0.0337,-0.0339,-0.0276,-0.0262,-0.0421,-0.042,-0.042,-0.0419,0,0,-0.0444,-0.048,-0.0485,-0.0502,-0.052,-0.0532,-0.0549,-0.0552,-0.0544,-0.0533,-0.0509,-0.0503,-0.0469,-0.0458,-0.0439,-0.0388,-0.0318,-0.0367,-0.0362,-0.0299,-0.0161,-0.0183,-0.0169,-0.0293,-0.029,-0.0288,-0.0138,0,-0.0474,-0.0522,-0.0533,-0.0574,-0.0595,-0.0592,-0.0606,-0.0603,-0.0586,-0.056,-0.0512,-0.0485,-0.0481,-0.0463,-0.0412,-0.0336,-0.028,-0.036,-0.0175,-0.017,-0.0181,-0.0153,-0.0281,-0.0127,-0.0124,-0.0121,-0.012,0,-0.0515,-0.0539,-0.0588,-0.0613,-0.0622,-0.0646,-0.0653,-0.0659,-0.0616,-0.0596,-0.0545,-0.0496,-0.0426,-0.0418,-0.0268,-0.0318,-0.0245,-0.0183,-0.0176,-0.0167,-0.0164,-0.0123,-0.0093,-0.0095,-0.0097,-0.0099,-0.01,0,-0.0535,-0.0577,-0.0618,-0.0632,-0.0659,-0.0679,-0.0689,-0.0671,-0.0663,-0.0603,-0.0571,-0.0478,-0.0418,-0.0309,-0.0203,-0.0222,-0.0027,-0.0031,0.0024,0.0023,0.0017,0.0009,0.0089,0.0089,0.0088,0.0088,0.0088,0,-0.0564,-0.0595,-0.0633,-0.0656,-0.0694,-0.0703,-0.0723,-0.0715,-0.0679,-0.0651,-0.0583,-0.0523,-0.0385,-0.0267,-0.0176,-0.0032,0.0002,0.0039,0.0068,-0.0008,-0.002,0.0027,0.0017,0.0094,0.0092,0.0091,0.009,0,-0.0579,-0.0607,-0.0652,-0.0692,-0.071,-0.0735,-0.076,-0.0757,-0.0723,-0.0676,-0.0651,-0.0529,-0.0374,-0.0241,-0.005,0.0004,0.014,0.0179,0.0089,0.0107,0.0139,0.0126,0.0276,0.0277,0.0277,0.0278,0.0278,0,-0.0591,-0.0619,-0.068,-0.071,-0.0735,-0.0773,-0.0795,-0.0786,-0.077,-0.0676,-0.064,-0.0488,-0.0398,-0.0126,-0.0012,0.0181,0.0187,0.0253,0.0194,0.015,0.0163,0.0148,0.0135,0.0279,0.0279,0.0279,0.0279,0,-0.0604,-0.0632,-0.0666,-0.0728,-0.077,-0.0805,-0.0826,-0.0814,-0.0776,-0.0744,-0.0595,-0.0458,-0.0284,-0.0107,0.0036,0.0162,0.021,0.0259,0.0259,0.0204,0.0155,0.0164,0.015,0.0281,0.0281,0.0281,0.0281,0,-0.0609,-0.0635,-0.0685,-0.0734,-0.0789,-0.0813,-0.0827,-0.0787,-0.0761,-0.065,-0.0599,-0.0418,-0.0309,-0.0115,0.0015,0.0138,0.016,0.0181,0.0185,0.0184,0.009,0.001,0.0135,0,0,0,0,0,-0.0607,-0.0636,-0.0685,-0.0738,-0.079,-0.0821,-0.0833,-0.0832,-0.079,-0.068,-0.0634,-0.047,-0.0246,-0.0146,-0.002,-0.0004,0.0153,0.014,0.0172,0.0292,0.029,0.019,0,0,0,0,0,0,-0.0607,-0.0653,-0.0678,-0.0729,-0.0766,-0.0815,-0.0825,-0.08,-0.0727,-0.0664,-0.0533,-0.046,-0.0239,-0.031,-0.0021,0.0014,0.0045,0.0247,0.0249,0.0293,0.0291,0.0289,0.0186,0,0,0,0,0]}]]